"SCET";"TARGET";"ELECTRON_DENSITY";"ERROR_FLAG";"ELECTRON_DENSITY_ERROR";"FREQ_FCE";"MEASURED_VALUE";"MEASURED_ITEM";"FREQ_PLASMA";"FREQ_UPPER_HYBRID";"FREQ_R_EQUALS_ZERO";"FREQ_L_EQUALS_ZERO";"ORBIT_NUMBER";"SATURN_RADIUS";"SATURN_IAU_LONGITUDE";"SATURN_SLS4_S_LONGITUDE";"SATURN_SLS4_N_LONGITUDE";"SATURN_SLS5_S_LONGITUDE";"SATURN_SLS5_N_LONGITUDE";"SATURN_LOCAL_TIME";"SATURN_KRONOGRAPHIC_LATITUDE";"SATURN_MAGNETIC_LATITUDE";"SATURN_L";"SATURN_L_OFFSET";"SATURN_SOLAR_EQUATORIAL_X";"SATURN_SOLAR_EQUATORIAL_Y";"SATURN_SOLAR_EQUATORIAL_Z";"SATURN_ALTITUDE";"ENCELADUS_ENCOUNTER_NUMBER";"ENCELADUS_RADIUS";"ENCELADUS_COROTATIONAL_X";"ENCELADUS_COROTATIONAL_Y";"ENCELADUS_COROTATIONAL_Z";"ENCELADUS_TRUE_ANOMALY";"ENCELADUS_PERIAPSIS_TIME";"JUPITER_RADIUS";"JUPITER_SYSTEMIII_LONGITUDE";"JUPITER_MAGNETIC_LATITUDE";"JUPITER_MAGNETIC_LOCAL_TIME";"JUPITER_L";"IO_PHASE";"EARTH_RADIUS";"EARTH_MAGNETIC_LATITUDE";"EARTH_LOCAL_TIME";"EARTH_L"
"[UTC]";"[0=Saturn, 1=Enceladus, 2=Jupiter, 3=Earth]";"[cm-3]";"[0=automated, 1=manual]";"[normalized density error]";"[Hz]";"[Hz]";"[0=upper hybrid frequency, 1=plasma frequency cutoff]";"[Hz]";"[Hz]";"[Hz]";"[Hz}";"[0, A, B, C, 3, 4, ... , 292, 293]";"[Rs where 1Rs=60268km]";"[degrees]";"[degrees]";"[degrees]";"[degrees]";"[degrees]";"[hours]";"[degrees]";"[degrees where offset=2293km north]";"[Rs where 1Rs=60268km]";"[Rs where 1Rs=60268km and offset=2293km north]";"[Rs where 1Rs=60268km]";"[Rs where 1Rs=60268km]";"[Rs where 1Rs=60268km]";"[km where ellipsoid a,b=60268km and c=54364km]";"[E0, E1, E2, ... , E21, E22]";"[Renc where 1Renc=252.1km]";"[Renc where 1Renc=252.1km]";"[Renc where 1Renc=252.1km]";"[Renc where 1Renc=252.1km]";"[degrees]";"[UTC]";"[Rj where 1Rj=71492km]";"[degrees]";"[degrees using JRM09 model]";"[hours using JRM09 model]";"[Rj where 1Rj=71492km]";"[degrees]";"[Re where 1Re=6378.1366km]";"[degrees]";"[hours]";"[Re where 1Re=6378.1366km]"
2011-10-02T00:00:03.993Z;0;4.1940e+01;0;     0.092;  2213.260;  58198.617; 0;  58156.516;  58198.617;  59273.676;  57060.414;154;   5.970; 314.604;;; 262.968; 227.469;   9.256;  -0.079;  -0.444;   5.970;   5.964;   4.495;  -3.929;  -0.008;;;;;;;;;;;;;;;;;;
2011-10-02T00:00:19.993Z;0;4.4490e+01;0;     0.080;  2213.260;  59938.383; 0;  59897.508;  59938.383;  61014.359;  58801.098;154;   5.972; 314.728;;; 263.092; 227.593;   9.258;  -0.079;  -0.444;   5.972;   5.966;   4.499;  -3.928;  -0.008;;;;;;;;;;;;;;;;;;
2011-10-02T00:00:35.993Z;0;4.1740e+01;0;     0.096;  2213.260;  58057.270; 0;  58015.066;  58057.270;  59132.250;  56918.992;154;   5.975; 314.852;;; 263.215; 227.718;   9.260;  -0.079;  -0.443;   5.975;   5.969;   4.502;  -3.928;  -0.008;;;;;;;;;;;;;;;;;;
2011-10-02T00:00:51.993Z;0;4.2080e+01;0;     0.093;  2213.260;  58293.188; 0;  58251.156;  58293.188;  59368.297;  57155.035;154;   5.977; 314.976;;; 263.338; 227.843;   9.262;  -0.079;  -0.443;   5.977;   5.971;   4.506;  -3.927;  -0.008;;;;;;;;;;;;;;;;;;
2011-10-02T00:01:23.993Z;0;4.3360e+01;0;     0.078;  2203.908;  59174.336; 0;  59133.281;  59174.336;  60245.500;  58041.594;154;   5.981; 315.224;;; 263.584; 228.092;   9.265;  -0.078;  -0.443;   5.981;   5.976;   4.513;  -3.926;  -0.008;;;;;;;;;;;;;;;;;;
2011-10-02T00:01:39.992Z;0;4.0950e+01;0;     0.086;  2203.908;  57504.785; 0;  57462.535;  57504.785;  58575.055;  56371.148;154;   5.984; 315.348;;; 263.707; 228.217;   9.267;  -0.078;  -0.442;   5.984;   5.978;   4.516;  -3.925;  -0.008;;;;;;;;;;;;;;;;;;
2011-10-02T00:01:55.992Z;0;4.0660e+01;0;     0.087;  2203.908;  57301.996; 0;  57259.598;  57301.996;  58372.156;  56168.246;154;   5.986; 315.472;;; 263.830; 228.342;   9.269;  -0.078;  -0.442;   5.986;   5.980;   4.520;  -3.925;  -0.008;;;;;;;;;;;;;;;;;;
2011-10-02T00:02:11.992Z;0;4.0820e+01;0;     0.090;  2203.740;  57418.633; 0;  57376.328;  57418.633;  58488.777;  56285.035;154;   5.988; 315.596;;; 263.954; 228.467;   9.270;  -0.078;  -0.442;   5.988;   5.982;   4.523;  -3.924;  -0.008;;;;;;;;;;;;;;;;;;
2011-10-02T00:02:27.992Z;0;4.0700e+01;0;     0.084;  2203.740;  57334.242; 0;  57291.875;  57334.242;  58404.340;  56200.598;154;   5.991; 315.720;;; 264.077; 228.592;   9.272;  -0.078;  -0.442;   5.991;   5.985;   4.527;  -3.924;  -0.008;;;;;;;;;;;;;;;;;;
2011-10-02T00:02:43.992Z;0;4.3820e+01;0;     0.079;  2203.740;  59482.340; 0;  59441.504;  59482.340;  60553.586;  58349.844;154;   5.993; 315.844;;; 264.200; 228.718;   9.274;  -0.078;  -0.441;   5.993;   5.987;   4.530;  -3.923;  -0.008;;;;;;;;;;;;;;;;;;
2011-10-02T00:02:59.992Z;0;4.2080e+01;0;     0.093;  2203.740;  58293.188; 0;  58251.516;  58293.188;  59363.809;  57160.066;154;   5.995; 315.968;;; 264.323; 228.843;   9.275;  -0.078;  -0.441;   5.995;   5.989;   4.534;  -3.923;  -0.008;;;;;;;;;;;;;;;;;;
2011-10-02T00:03:15.992Z;0;4.0620e+01;0;     0.085;  2174.676;  57271.355; 0;  57230.055;  57271.355;  58327.719;  56153.043;154;   5.998; 316.092;;; 264.447; 228.968;   9.277;  -0.078;  -0.441;   5.998;   5.992;   4.537;  -3.922;  -0.008;;;;;;;;;;;;;;;;;;
2011-10-02T00:03:31.992Z;0;4.3020e+01;0;     0.084;  2174.676;  58939.121; 0;  58898.988;  58939.121;  59996.363;  57821.688;154;   6.000; 316.216;;; 264.570; 229.094;   9.279;  -0.078;  -0.441;   6.000;   5.994;   4.541;  -3.921;  -0.008;;;;;;;;;;;;;;;;;;
2011-10-02T00:03:47.992Z;0;4.0560e+01;0;     0.084;  2174.676;  57233.781; 0;  57192.453;  57233.781;  58290.125;  56115.449;154;   6.002; 316.340;;; 264.693; 229.220;   9.281;  -0.077;  -0.441;   6.002;   5.996;   4.544;  -3.921;  -0.008;;;;;;;;;;;;;;;;;;
2011-10-02T00:04:03.991Z;0;4.2240e+01;0;     0.091;  2179.996;  58406.879; 0;  58366.180;  58406.879;  59466.355;  57286.359;154;   6.005; 316.464;;; 264.817; 229.345;   9.282;  -0.077;  -0.440;   6.005;   5.999;   4.548;  -3.920;  -0.008;;;;;;;;;;;;;;;;;;
2011-10-02T00:04:19.991Z;0;4.0470e+01;0;     0.086;  2179.996;  57170.770; 0;  57129.191;  57170.770;  58229.586;  56049.590;154;   6.007; 316.588;;; 264.940; 229.471;   9.284;  -0.077;  -0.440;   6.007;   6.001;   4.551;  -3.920;  -0.008;;;;;;;;;;;;;;;;;;
2011-10-02T00:04:35.991Z;0;4.1070e+01;0;     0.087;  2179.996;  57588.988; 0;  57547.711;  57588.988;  58648.031;  56468.035;154;   6.009; 316.713;;; 265.064; 229.597;   9.286;  -0.077;  -0.440;   6.009;   6.003;   4.555;  -3.919;  -0.008;;;;;;;;;;;;;;;;;;
2011-10-02T00:04:51.991Z;0;4.3190e+01;0;     0.082;  2179.996;  59059.062; 0;  59018.816;  59059.062;  60118.879;  57938.883;154;   6.011; 316.837;;; 265.187; 229.723;   9.288;  -0.077;  -0.440;   6.011;   6.005;   4.559;  -3.919;  -0.008;;;;;;;;;;;;;;;;;;
2011-10-02T00:05:07.991Z;0;4.4100e+01;0;     0.081;  2141.076;  59671.105; 0;  59632.680;  59671.105;  60712.828;  58571.750;154;   6.014; 316.961;;; 265.311; 229.849;   9.289;  -0.077;  -0.439;   6.014;   6.008;   4.562;  -3.918;  -0.008;;;;;;;;;;;;;;;;;;
2011-10-02T00:05:23.991Z;0;4.2470e+01;0;     0.084;  2141.076;  58560.344; 0;  58521.191;  58560.344;  59601.520;  57460.441;154;   6.016; 317.085;;; 265.434; 229.976;   9.291;  -0.077;  -0.439;   6.016;   6.010;   4.566;  -3.918;  -0.008;;;;;;;;;;;;;;;;;;
2011-10-02T00:05:39.991Z;0;4.3450e+01;0;     0.085;  2141.076;  59228.969; 0;  59190.258;  59228.969;  60270.477;  58129.398;154;   6.018; 317.210;;; 265.557; 230.102;   9.293;  -0.077;  -0.439;   6.018;   6.012;   4.569;  -3.917;  -0.008;;;;;;;;;;;;;;;;;;
2011-10-02T00:05:55.991Z;0;4.0520e+01;0;     0.087;  2141.076;  57202.262; 0;  57162.176;  57202.262;  58242.738;  56101.664;154;   6.021; 317.334;;; 265.681; 230.228;   9.295;  -0.077;  -0.439;   6.021;   6.015;   4.573;  -3.916;  -0.008;;;;;;;;;;;;;;;;;;
2011-10-02T00:06:11.991Z;0;4.0470e+01;0;     0.084;  2148.356;  57165.434; 0;  57125.051;  57165.434;  58209.328;  56060.973;154;   6.023; 317.458;;; 265.805; 230.355;   9.296;  -0.076;  -0.438;   6.023;   6.017;   4.576;  -3.916;  -0.008;;;;;;;;;;;;;;;;;;
2011-10-02T00:06:27.990Z;0;4.3020e+01;0;     0.081;  2148.356;  58941.047; 0;  58901.883;  58941.047;  59985.852;  57837.496;154;   6.025; 317.582;;; 265.928; 230.481;   9.298;  -0.076;  -0.438;   6.025;   6.019;   4.580;  -3.915;  -0.008;;;;;;;;;;;;;;;;;;
2011-10-02T00:06:43.990Z;0;4.0340e+01;0;     0.086;  2148.356;  57074.586; 0;  57034.137;  57074.586;  58118.430;  55970.074;154;   6.028; 317.707;;; 266.052; 230.608;   9.300;  -0.076;  -0.438;   6.028;   6.022;   4.583;  -3.915;  -0.008;;;;;;;;;;;;;;;;;;
2011-10-02T00:06:59.990Z;0;4.0150e+01;0;     0.081;  2148.356;  56943.336; 0;  56902.797;  56943.336;  57987.109;  55838.754;154;   6.030; 317.831;;; 266.175; 230.735;   9.301;  -0.076;  -0.438;   6.030;   6.024;   4.587;  -3.914;  -0.008;;;;;;;;;;;;;;;;;;
2011-10-02T00:07:15.990Z;0;4.2900e+01;0;     0.085;  2137.828;  58859.547; 0;  58820.711;  58859.547;  59899.336;  57761.508;154;   6.032; 317.956;;; 266.299; 230.862;   9.303;  -0.076;  -0.437;   6.032;   6.026;   4.590;  -3.914;  -0.008;;;;;;;;;;;;;;;;;;
2011-10-02T00:07:31.990Z;0;4.0610e+01;0;     0.085;  2137.828;  57265.684; 0;  57225.766;  57265.684;  58304.660;  56166.832;154;   6.035; 318.080;;; 266.422; 230.988;   9.305;  -0.076;  -0.437;   6.035;   6.029;   4.594;  -3.913;  -0.008;;;;;;;;;;;;;;;;;;
2011-10-02T00:07:47.990Z;0;4.3040e+01;0;     0.084;  2137.828;  58952.938; 0;  58914.164;  58952.938;  59992.773;  57854.945;154;   6.037; 318.204;;; 266.546; 231.116;   9.307;  -0.076;  -0.437;   6.037;   6.031;   4.597;  -3.913;  -0.008;;;;;;;;;;;;;;;;;;
2011-10-02T00:08:03.990Z;0;4.1750e+01;0;     0.094;  2120.972;  58059.387; 0;  58020.633;  58059.387;  59090.809;  56969.840;154;   6.039; 318.329;;; 266.670; 231.243;   9.308;  -0.076;  -0.437;   6.039;   6.033;   4.601;  -3.912;  -0.008;;;;;;;;;;;;;;;;;;
2011-10-02T00:08:19.990Z;0;4.0500e+01;0;     0.084;  2120.972;  57184.281; 0;  57144.934;  57184.281;  58215.258;  56094.289;154;   6.042; 318.453;;; 266.793; 231.370;   9.310;  -0.076;  -0.436;   6.042;   6.035;   4.604;  -3.911;  -0.008;;;;;;;;;;;;;;;;;;
2011-10-02T00:08:35.990Z;0;3.9800e+01;0;     0.079;  2120.972;  56688.812; 0;  56649.121;  56688.812;  57719.531;  55598.562;154;   6.044; 318.578;;; 266.917; 231.497;   9.312;  -0.076;  -0.436;   6.044;   6.038;   4.608;  -3.911;  -0.008;;;;;;;;;;;;;;;;;;
2011-10-02T00:08:51.989Z;0;3.9710e+01;0;     0.082;  2120.972;  56630.309; 0;  56590.578;  56630.309;  57660.996;  55540.027;154;   6.046; 318.702;;; 267.041; 231.625;   9.313;  -0.075;  -0.436;   6.046;   6.040;   4.611;  -3.910;  -0.008;;;;;;;;;;;;;;;;;;
2011-10-02T00:09:07.989Z;0;4.3890e+01;0;     0.080;  2113.552;  59527.457; 0;  59489.926;  59527.457;  60556.086;  58442.535;154;   6.048; 318.827;;; 267.165; 231.752;   9.315;  -0.075;  -0.436;   6.048;   6.042;   4.615;  -3.910;  -0.008;;;;;;;;;;;;;;;;;;
2011-10-02T00:09:23.989Z;0;4.0550e+01;0;     0.090;  2113.552;  57219.797; 0;  57180.750;  57219.797;  58247.289;  56133.738;154;   6.051; 318.951;;; 267.288; 231.880;   9.317;  -0.075;  -0.435;   6.051;   6.045;   4.618;  -3.909;  -0.008;;;;;;;;;;;;;;;;;;
2011-10-02T00:09:39.989Z;0;4.0270e+01;0;     0.084;  2113.552;  57028.367; 0;  56989.188;  57028.367;  58055.762;  55942.211;154;   6.053; 319.076;;; 267.412; 232.007;   9.319;  -0.075;  -0.435;   6.053;   6.047;   4.622;  -3.909;  -0.008;;;;;;;;;;;;;;;;;;
2011-10-02T00:09:55.989Z;0;3.9880e+01;0;     0.082;  2113.552;  56750.855; 0;  56711.484;  56750.855;  57778.105;  55664.555;154;   6.055; 319.200;;; 267.536; 232.135;   9.320;  -0.075;  -0.435;   6.055;   6.049;   4.625;  -3.908;  -0.008;;;;;;;;;;;;;;;;;;
2011-10-02T00:10:11.989Z;0;4.0030e+01;0;     0.081;  2107.700;  56856.238; 0;  56817.156;  56856.238;  57880.781;  55773.082;154;   6.058; 319.325;;; 267.661; 232.261;   9.322;  -0.075;  -0.435;   6.058;   6.052;   4.629;  -3.907;  -0.008;;;;;;;;;;;;;;;;;;
2011-10-02T00:10:27.989Z;0;3.9990e+01;0;     0.082;  2107.700;  56826.215; 0;  56787.113;  56826.215;  57850.742;  55743.043;154;   6.060; 319.450;;; 267.786; 232.386;   9.324;  -0.075;  -0.434;   6.060;   6.054;   4.632;  -3.907;  -0.008;;;;;;;;;;;;;;;;;;
2011-10-02T00:10:43.989Z;0;3.9800e+01;0;     0.080;  2107.700;  56694.289; 0;  56655.098;  56694.289;  57718.746;  55611.047;154;   6.062; 319.574;;; 267.911; 232.511;   9.325;  -0.075;  -0.434;   6.062;   6.056;   4.636;  -3.906;  -0.008;;;;;;;;;;;;;;;;;;
2011-10-02T00:11:16.363Z;0;3.9820e+01;0;     0.084;  2095.128;  56708.492; 0;  56669.777;  56708.492;  57727.023;  55631.895;154;   6.067; 319.827;;; 268.165; 232.764;   9.329;  -0.075;  -0.434;   6.067;   6.061;   4.643;  -3.905;  -0.008;;;;;;;;;;;;;;;;;;
2011-10-02T00:11:31.988Z;0;3.9920e+01;0;     0.083;  2095.128;  56779.820; 0;  56741.152;  56779.820;  57798.387;  55703.258;154;   6.069; 319.948;;; 268.288; 232.886;   9.330;  -0.074;  -0.434;   6.069;   6.063;   4.646;  -3.905;  -0.008;;;;;;;;;;;;;;;;;;
2011-10-02T00:11:47.988Z;0;4.0430e+01;0;     0.085;  2095.128;  57134.824; 0;  57096.398;  57134.824;  58153.570;  56058.441;154;   6.072; 320.073;;; 268.414; 233.011;   9.332;  -0.074;  -0.433;   6.072;   6.065;   4.650;  -3.904;  -0.008;;;;;;;;;;;;;;;;;;
2011-10-02T00:12:03.988Z;0;4.0870e+01;0;     0.086;  2082.612;  57445.297; 0;  57407.531;  57445.297;  58458.281;  56375.672;154;   6.074; 320.198;;; 268.540; 233.135;   9.334;  -0.074;  -0.433;   6.074;   6.068;   4.653;  -3.903;  -0.008;;;;;;;;;;;;;;;;;;
2011-10-02T00:12:19.988Z;0;3.9440e+01;0;     0.081;  2082.612;  56431.719; 0;  56393.277;  56431.719;  57444.195;  55361.582;154;   6.076; 320.323;;; 268.665; 233.260;   9.335;  -0.074;  -0.433;   6.076;   6.070;   4.657;  -3.903;  -0.008;;;;;;;;;;;;;;;;;;
2011-10-02T00:12:35.988Z;0;3.9350e+01;0;     0.086;  2082.612;  56372.812; 0;  56334.328;  56372.812;  57385.258;  55302.648;154;   6.078; 320.447;;; 268.791; 233.385;   9.337;  -0.074;  -0.433;   6.078;   6.072;   4.660;  -3.902;  -0.008;;;;;;;;;;;;;;;;;;
2011-10-02T00:12:51.988Z;0;4.0680e+01;0;     0.084;  2082.612;  57311.945; 0;  57274.094;  57311.945;  58324.863;  56242.254;154;   6.081; 320.572;;; 268.918; 233.509;   9.339;  -0.074;  -0.432;   6.081;   6.075;   4.664;  -3.902;  -0.008;;;;;;;;;;;;;;;;;;
2011-10-02T00:13:07.988Z;0;4.2090e+01;0;     0.098;  2065.700;  58293.816; 0;  58257.203;  58293.816;  59299.211;  57233.512;154;   6.083; 320.697;;; 269.044; 233.634;   9.341;  -0.074;  -0.432;   6.083;   6.077;   4.667;  -3.901;  -0.008;;;;;;;;;;;;;;;;;;
2011-10-02T00:13:23.988Z;0;3.9990e+01;0;     0.083;  2065.700;  56827.211; 0;  56789.652;  56827.211;  57831.895;  55766.195;154;   6.085; 320.822;;; 269.170; 233.758;   9.342;  -0.074;  -0.432;   6.085;   6.079;   4.671;  -3.900;  -0.008;;;;;;;;;;;;;;;;;;
2011-10-02T00:13:39.987Z;0;3.8960e+01;0;     0.084;  2065.700;  56092.797; 0;  56054.746;  56092.797;  57097.113;  55031.414;154;   6.088; 320.947;;; 269.296; 233.883;   9.344;  -0.074;  -0.432;   6.088;   6.082;   4.674;  -3.900;  -0.008;;;;;;;;;;;;;;;;;;
2011-10-02T00:13:55.987Z;0;3.9690e+01;0;     0.081;  2065.700;  56613.508; 0;  56575.809;  56613.508;  57618.086;  55552.387;154;   6.090; 321.072;;; 269.423; 234.007;   9.346;  -0.073;  -0.431;   6.090;   6.084;   4.678;  -3.899;  -0.008;;;;;;;;;;;;;;;;;;
2011-10-02T00:14:11.987Z;0;3.9140e+01;0;     0.087;  2063.544;  56218.316; 0;  56180.430;  56218.316;  57221.676;  55158.133;154;   6.092; 321.196;;; 269.549; 234.132;   9.347;  -0.073;  -0.431;   6.092;   6.086;   4.681;  -3.899;  -0.008;;;;;;;;;;;;;;;;;;
2011-10-02T00:14:27.987Z;0;4.2090e+01;0;     0.097;  2063.544;  58293.344; 0;  58256.809;  58293.344;  59297.715;  57234.172;154;   6.095; 321.321;;; 269.676; 234.256;   9.349;  -0.073;  -0.431;   6.095;   6.089;   4.685;  -3.898;  -0.008;;;;;;;;;;;;;;;;;;
2011-10-02T00:14:43.987Z;0;3.9070e+01;0;     0.091;  2063.544;  56166.941; 0;  56129.023;  56166.941;  57170.277;  55106.730;154;   6.097; 321.446;;; 269.803; 234.380;   9.351;  -0.073;  -0.431;   6.097;   6.091;   4.688;  -3.898;  -0.008;;;;;;;;;;;;;;;;;;
2011-10-02T00:14:59.987Z;0;3.9620e+01;0;     0.081;  2063.544;  56564.270; 0;  56526.617;  56564.270;  57567.805;  55504.262;154;   6.099; 321.571;;; 269.929; 234.504;   9.352;  -0.073;  -0.430;   6.099;   6.093;   4.692;  -3.897;  -0.008;;;;;;;;;;;;;;;;;;
2011-10-02T00:15:15.987Z;0;3.9460e+01;0;     0.085;  2044.224;  56449.512; 0;  56412.484;  56449.512;  57443.855;  55399.633;154;   6.102; 321.696;;; 270.056; 234.629;   9.354;  -0.073;  -0.430;   6.102;   6.095;   4.695;  -3.896;  -0.008;;;;;;;;;;;;;;;;;;
2011-10-02T00:15:31.987Z;0;4.2190e+01;0;     0.089;  2044.224;  58365.434; 0;  58329.625;  58365.434;  59360.691;  57316.465;154;   6.104; 321.821;;; 270.183; 234.753;   9.356;  -0.073;  -0.430;   6.104;   6.098;   4.699;  -3.896;  -0.008;;;;;;;;;;;;;;;;;;
2011-10-02T00:15:47.986Z;0;3.9460e+01;0;     0.083;  2044.224;  56444.609; 0;  56407.578;  56444.609;  57438.953;  55394.727;154;   6.106; 321.946;;; 270.310; 234.877;   9.357;  -0.073;  -0.430;   6.106;   6.100;   4.702;  -3.895;  -0.008;;;;;;;;;;;;;;;;;;
2011-10-02T00:16:03.986Z;0;3.9360e+01;0;     0.085;  2046.940;  56377.160; 0;  56339.988;  56377.160;  57372.754;  55325.812;154;   6.108; 322.071;;; 270.437; 235.001;   9.359;  -0.073;  -0.429;   6.108;   6.102;   4.706;  -3.895;  -0.008;;;;;;;;;;;;;;;;;;
2011-10-02T00:16:19.986Z;0;3.8610e+01;0;     0.092;  2046.940;  55838.785; 0;  55801.254;  55838.785;  56834.109;  54787.168;154;   6.111; 322.196;;; 270.565; 235.125;   9.361;  -0.073;  -0.429;   6.111;   6.105;   4.709;  -3.894;  -0.008;;;;;;;;;;;;;;;;;;
2011-10-02T00:16:35.986Z;0;3.7950e+01;0;     0.103;  2046.940;  55358.805; 0;  55320.949;  55358.805;  56353.883;  54306.945;154;   6.113; 322.321;;; 270.692; 235.249;   9.362;  -0.072;  -0.429;   6.113;   6.107;   4.713;  -3.893;  -0.008;;;;;;;;;;;;;;;;;;
2011-10-02T00:16:51.986Z;0;4.3050e+01;0;     0.084;  2046.940;  58957.262; 0;  58921.719;  58957.262;  59954.074;  57907.137;154;   6.115; 322.446;;; 270.819; 235.372;   9.364;  -0.072;  -0.429;   6.115;   6.109;   4.716;  -3.893;  -0.008;;;;;;;;;;;;;;;;;;
2011-10-02T00:17:07.986Z;0;3.8100e+01;0;     0.095;  2016.196;  55465.477; 0;  55428.820;  55465.477;  56446.086;  54429.887;154;   6.118; 322.571;;; 270.947; 235.496;   9.366;  -0.072;  -0.429;   6.118;   6.112;   4.720;  -3.892;  -0.008;;;;;;;;;;;;;;;;;;
2011-10-02T00:17:23.986Z;0;4.0270e+01;0;     0.084;  2016.196;  57024.480; 0;  56988.828;  57024.480;  58005.840;  55989.645;154;   6.120; 322.697;;; 271.075; 235.620;   9.367;  -0.072;  -0.428;   6.120;   6.114;   4.723;  -3.892;  -0.008;;;;;;;;;;;;;;;;;;
2011-10-02T00:17:39.986Z;0;3.8400e+01;0;     0.090;  2016.196;  55682.035; 0;  55645.520;  55682.035;  56662.750;  54646.555;154;   6.122; 322.822;;; 271.202; 235.744;   9.369;  -0.072;  -0.428;   6.122;   6.116;   4.727;  -3.891;  -0.008;;;;;;;;;;;;;;;;;;
2011-10-02T00:17:55.986Z;0;3.8000e+01;0;     0.097;  2016.196;  55394.508; 0;  55357.805;  55394.508;  56375.082;  54358.883;154;   6.125; 322.947;;; 271.330; 235.867;   9.371;  -0.072;  -0.428;   6.125;   6.118;   4.730;  -3.890;  -0.008;;;;;;;;;;;;;;;;;;
2011-10-02T00:18:11.985Z;0;4.0830e+01;0;     0.088;  2018.268;  57417.773; 0;  57382.289;  57417.773;  58400.297;  56382.031;154;   6.127; 323.072;;; 271.458; 235.991;   9.372;  -0.072;  -0.428;   6.127;   6.121;   4.734;  -3.890;  -0.008;;;;;;;;;;;;;;;;;;
2011-10-02T00:18:27.985Z;0;3.8320e+01;0;     0.097;  2018.268;  55624.000; 0;  55587.371;  55624.000;  56605.664;  54587.398;154;   6.129; 323.197;;; 271.586; 236.114;   9.374;  -0.072;  -0.427;   6.129;   6.123;   4.737;  -3.889;  -0.008;;;;;;;;;;;;;;;;;;
2011-10-02T00:18:43.985Z;0;3.8720e+01;0;     0.094;  2018.268;  55913.398; 0;  55876.961;  55913.398;  56895.207;  54876.938;154;   6.132; 323.322;;; 271.714; 236.238;   9.376;  -0.072;  -0.427;   6.132;   6.125;   4.741;  -3.889;  -0.008;;;;;;;;;;;;;;;;;;
2011-10-02T00:18:59.985Z;0;3.9230e+01;0;     0.084;  2018.268;  56279.199; 0;  56243.000;  56279.199;  57261.184;  55242.918;154;   6.134; 323.448;;; 271.842; 236.361;   9.377;  -0.072;  -0.427;   6.134;   6.128;   4.744;  -3.888;  -0.008;;;;;;;;;;;;;;;;;;
2011-10-02T00:19:15.985Z;0;3.8800e+01;0;     0.090;  2010.372;  55969.871; 0;  55933.754;  55969.871;  56947.973;  54937.602;154;   6.136; 323.573;;; 271.970; 236.485;   9.379;  -0.071;  -0.427;   6.136;   6.130;   4.747;  -3.887;  -0.008;;;;;;;;;;;;;;;;;;
2011-10-02T00:19:31.985Z;0;3.7370e+01;0;     0.092;  2010.372;  54931.906; 0;  54895.105;  54931.906;  55909.496;  53899.121;154;   6.138; 323.698;;; 272.099; 236.608;   9.381;  -0.071;  -0.426;   6.138;   6.132;   4.751;  -3.887;  -0.008;;;;;;;;;;;;;;;;;;
2011-10-02T00:19:47.985Z;0;3.8270e+01;0;     0.098;  2010.372;  55588.703; 0;  55552.340;  55588.703;  56566.617;  54556.246;154;   6.141; 323.823;;; 272.227; 236.731;   9.382;  -0.071;  -0.426;   6.141;   6.135;   4.754;  -3.886;  -0.008;;;;;;;;;;;;;;;;;;
2011-10-02T00:20:03.985Z;0;4.0200e+01;0;     0.085;  1997.184;  56967.832; 0;  56932.812;  56967.832;  57940.160;  55942.977;154;   6.143; 323.949;;; 272.355; 236.855;   9.384;  -0.071;  -0.426;   6.143;   6.137;   4.758;  -3.886;  -0.008;;;;;;;;;;;;;;;;;;
2011-10-02T00:20:19.985Z;0;3.8170e+01;0;     0.097;  1997.184;  55515.195; 0;  55479.258;  55515.195;  56486.836;  54489.652;154;   6.145; 324.074;;; 272.481; 236.981;   9.386;  -0.071;  -0.426;   6.145;   6.139;   4.761;  -3.885;  -0.008;;;;;;;;;;;;;;;;;;
2011-10-02T00:20:35.984Z;0;3.8850e+01;0;     0.083;  1997.184;  56005.242; 0;  55969.621;  56005.242;  56977.121;  54979.938;154;   6.148; 324.199;;; 272.607; 237.107;   9.387;  -0.071;  -0.425;   6.148;   6.142;   4.765;  -3.884;  -0.008;;;;;;;;;;;;;;;;;;
2011-10-02T00:20:51.984Z;0;4.0010e+01;0;     0.079;  1997.184;  56837.891; 0;  56802.789;  56837.891;  57810.160;  55812.977;154;   6.150; 324.325;;; 272.732; 237.233;   9.389;  -0.071;  -0.425;   6.150;   6.144;   4.768;  -3.884;  -0.008;;;;;;;;;;;;;;;;;;
2011-10-02T00:21:23.984Z;0;3.9030e+01;0;     0.088;  1971.200;  56138.867; 0;  56104.250;  56138.867;  57098.504;  55127.305;154;   6.155; 324.576;;; 272.984; 237.486;   9.392;  -0.071;  -0.425;   6.155;   6.148;   4.775;  -3.883;  -0.008;;;;;;;;;;;;;;;;;;
2011-10-02T00:21:39.984Z;0;4.0480e+01;0;     0.089;  1971.200;  57169.336; 0;  57135.344;  57169.336;  58129.441;  56158.242;154;   6.157; 324.701;;; 273.109; 237.612;   9.394;  -0.071;  -0.425;   6.157;   6.151;   4.779;  -3.882;  -0.008;;;;;;;;;;;;;;;;;;
2011-10-02T00:21:55.984Z;0;4.0370e+01;0;     0.084;  1971.200;  57091.512; 0;  57057.473;  57091.512;  58051.582;  56080.383;154;   6.159; 324.826;;; 273.235; 237.738;   9.396;  -0.070;  -0.424;   6.159;   6.153;   4.782;  -3.881;  -0.008;;;;;;;;;;;;;;;;;;
2011-10-02T00:22:11.984Z;0;3.8580e+01;0;     0.092;  1967.196;  55813.117; 0;  55778.438;  55813.117;  56770.707;  54803.512;154;   6.162; 324.952;;; 273.360; 237.865;   9.397;  -0.070;  -0.424;   6.162;   6.155;   4.786;  -3.881;  -0.008;;;;;;;;;;;;;;;;;;
2011-10-02T00:22:27.984Z;0;3.7100e+01;0;     0.091;  1967.196;  54733.715; 0;  54698.352;  54733.715;  55690.793;  53723.598;154;   6.164; 325.077;;; 273.486; 237.992;   9.399;  -0.070;  -0.424;   6.164;   6.158;   4.789;  -3.880;  -0.008;;;;;;;;;;;;;;;;;;
2011-10-02T00:22:43.984Z;0;3.9930e+01;0;     0.081;  1967.196;  56776.949; 0;  56742.859;  56776.949;  57734.980;  55767.785;154;   6.166; 325.203;;; 273.611; 238.118;   9.400;  -0.070;  -0.424;   6.166;   6.160;   4.793;  -3.880;  -0.008;;;;;;;;;;;;;;;;;;
2011-10-02T00:22:59.983Z;0;4.1940e+01;0;     0.092;  1967.196;  58190.562; 0;  58157.301;  58190.562;  59149.215;  57182.020;154;   6.168; 325.328;;; 273.736; 238.245;   9.402;  -0.070;  -0.423;   6.168;   6.162;   4.796;  -3.879;  -0.008;;;;;;;;;;;;;;;;;;
2011-10-02T00:23:15.983Z;0;3.8930e+01;0;     0.090;  1948.996;  56062.188; 0;  56028.301;  56062.188;  57011.270;  55062.273;154;   6.171; 325.454;;; 273.861; 238.372;   9.404;  -0.070;  -0.423;   6.171;   6.165;   4.799;  -3.878;  -0.008;;;;;;;;;;;;;;;;;;